Weather History for KFVE - January, 2013

Change the Weather History Date:

Friday, January 25, 2013

  Actual Average Record
Temperature  
Mean Temperature -1 °F 8 °F  
Max Temperature 5 °F 17 °F 37 °F (1997)
Min Temperature -8 °F 0 °F -18 °F (2008)
Degree Days  
Heating Degree Days 66    
Month to date heating degree days 1401  
Since 1 July heating degree days 4812  
Cooling Degree Days 0    
Month to date cooling degree days 0  
Year to date cooling degree days 0  
Moisture  
Dew Point -9 °F    
Average Humidity 69    
Maximum Humidity 79    
Minimum Humidity 60    
Precipitation  
Precipitation T in 0.03 in 0.28 in (1997)
Month to date precipitation 0.21 1.55  
Year to date precipitation 0.21 1.55  
Sea Level Pressure  
Sea Level Pressure 29.93 in    
Wind  
Wind Speed 16 mph (WNW)    
Max Wind Speed 26 mph    
Max Gust Speed 37 mph    
Visibility 9 miles    
Events      
T = Trace of Precipitation, MM = Missing Value Source: NWS Daily Summary

Daily Weather History Graph

Daily Weather History Graph

Search for Another Location

Airport or City:

Trip Planner

Search our weather history database for the weather conditions in past years. The results will help you decide how hot, cold, wet, or windy it might be!

Date:

Astronomy

Jan. 25, 2013 Rise Set
Actual Time 7:06 AM EST 4:24 PM EST
Civil Twilight 6:33 AM EST 4:58 PM EST
Nautical Twilight 5:56 AM EST 5:35 PM EST
Astronomical Twilight 5:20 AM EST 6:11 PM EST
Moon 3:18 PM EST (1/25) 5:44 AM EST (1/25)
Length of Visible Light 10h 25m
Length of Day
9h 18m
Waxing Gibbous, 98% of the Moon is Illuminated
Jan 25
Waxing Gibbous
Jan 26
Full
Feb 3
Last Quarter
Feb 10
New
Feb 17
First Quarter

Hourly Weather History & Observations

Time (EST) Temp. Windchill Dew Point Humidity Pressure Visibility Wind Dir Wind Speed Gust Speed Precip Events Conditions
12:43 AM -7.6 °F -27.5 °F -14.8 °F 71% 29.81 in 10.0 mi WNW 12.7 mph 19.6 mph N/A   Scattered Clouds
12:53 AM -7.1 °F -27.6 °F -13.0 °F 75% 29.89 in 10.0 mi WNW 13.8 mph 21.9 mph N/A   Mostly Cloudy
1:21 AM -5.8 °F -26.8 °F -11.2 °F 77% 29.81 in 10.0 mi NW 15.0 mph 24.2 mph N/A   Overcast
1:30 AM -5.8 °F -28.8 °F -11.2 °F 77% 29.81 in 10.0 mi WNW 18.4 mph 28.8 mph N/A   Mostly Cloudy
1:53 AM -5.1 °F -27.8 °F -11.9 °F 72% 29.91 in 10.0 mi WNW 18.4 mph 28.8 mph N/A   Scattered Clouds
2:12 AM -4.0 °F -24.5 °F -11.2 °F 71% 29.82 in 10.0 mi NW 15.0 mph 25.3 mph N/A   Overcast
2:44 AM -4.0 °F -28.1 °F -11.2 °F 71% 29.83 in 10.0 mi WNW 21.9 mph 34.5 mph N/A   Mostly Cloudy
2:53 AM -4.0 °F -27.6 °F -11.0 °F 72% 29.92 in 6.0 mi WNW 20.7 mph 34.5 mph N/A   Haze
3:53 AM -4.0 °F -28.6 °F -11.0 °F 72% 29.90 in 3.0 mi WNW 23.0 mph 29.9 mph 0.00 in   Overcast
4:36 AM -2.2 °F -25.7 °F -9.4 °F 71% 29.82 in 5.0 mi WNW 21.9 mph 28.8 mph 0.00 in   Overcast
4:50 AM -2.2 °F -25.7 °F -11.2 °F 66% 29.83 in 5.0 mi NW 21.9 mph 31.1 mph 0.00 in   Overcast
4:53 AM -2.9 °F -26.7 °F -11.0 °F 68% 29.91 in 5.0 mi NW 21.9 mph 34.5 mph 0.00 in   Overcast
5:53 AM -4.0 °F -29.1 °F -11.9 °F 69% 29.93 in 5.0 mi NW 24.2 mph 35.7 mph 0.00 in   Haze
6:05 AM -4.0 °F -27.6 °F -11.2 °F 71% 29.85 in 10.0 mi WNW 20.7 mph 31.1 mph N/A   Scattered Clouds
6:53 AM -5.1 °F -29.0 °F -11.9 °F 72% 29.94 in 10.0 mi NW 20.7 mph 29.9 mph N/A   Clear
7:53 AM -4.0 °F -25.2 °F -11.9 °F 69% 29.96 in 10.0 mi NW 16.1 mph 32.2 mph N/A   Clear
8:53 AM -2.9 °F -19.8 °F -11.9 °F 65% 30.00 in 10.0 mi NW 10.4 mph 23.0 mph N/A   Partly Cloudy
9:09 AM -2.2 °F -22.9 °F -11.2 °F 66% 29.92 in 10.0 mi NW 16.1 mph 27.6 mph N/A   Mostly Cloudy
9:53 AM -0.9 °F -21.9 °F -11.0 °F 62% 30.02 in 9.0 mi NW 17.3 mph 29.9 mph N/A   Overcast
10:53 AM -0.0 °F -23.3 °F -9.0 °F 66% 30.02 in 10.0 mi NW 23.0 mph 29.9 mph N/A   Overcast
11:32 AM 1.4 °F -18.8 °F -7.6 °F 66% 29.93 in 10.0 mi NW 17.3 mph 27.6 mph N/A   Mostly Cloudy
11:53 AM 3.0 °F -14.8 °F -8.0 °F 60% 30.01 in 10.0 mi NW 13.8 mph 29.9 mph N/A   Partly Cloudy
12:24 PM 3.2 °F - -7.6 °F 61% 29.93 in 10.0 mi North - - N/A   Mostly Cloudy
12:53 PM 3.0 °F - -7.1 °F 63% 30.00 in 10.0 mi North - - N/A   Overcast
1:53 PM 3.9 °F -16.6 °F -7.1 °F 60% 29.99 in 10.0 mi NW 19.6 mph 25.3 mph N/A   Overcast
2:53 PM 5.0 °F -14.7 °F -6.0 °F 61% 29.99 in 10.0 mi NW 18.4 mph 23.0 mph N/A   Overcast
3:53 PM 5.0 °F -10.8 °F -6.0 °F 61% 29.99 in 10.0 mi WNW 11.5 mph 20.7 mph N/A   Overcast
4:37 PM 3.2 °F -13.1 °F -5.8 °F 66% 29.92 in 10.0 mi WNW 11.5 mph - N/A   Scattered Clouds
4:53 PM 3.0 °F -12.5 °F -7.1 °F 63% 29.99 in 10.0 mi WNW 10.4 mph - N/A   Clear
5:53 PM 1.9 °F -14.7 °F -7.1 °F 66% 29.99 in 10.0 mi WNW 11.5 mph - N/A   Scattered Clouds
6:53 PM 1.0 °F -18.0 °F -6.0 °F 72% 29.99 in 10.0 mi WNW 15.0 mph - N/A   Clear
7:53 PM 1.0 °F -17.3 °F -6.0 °F 72% 30.00 in 10.0 mi West 13.8 mph - N/A   Partly Cloudy
8:53 PM -0.9 °F -17.4 °F -7.1 °F 75% 30.01 in 10.0 mi WNW 10.4 mph - N/A   Clear
9:53 PM -0.0 °F -18.7 °F -8.0 °F 69% 30.00 in 10.0 mi WNW 13.8 mph - N/A   Clear
10:53 PM -2.9 °F -19.8 °F -9.0 °F 75% 30.00 in 10.0 mi WNW 10.4 mph - N/A   Clear
11:45 PM -2.2 °F -15.6 °F -9.4 °F 71% 29.92 in 10.0 mi NW 6.9 mph - N/A   Mostly Cloudy
11:53 PM -2.9 °F -19.8 °F -8.0 °F 79% 29.99 in 10.0 mi WNW 10.4 mph - N/A   Overcast